Location: Unspecified
(0.0000°N, 0.0000°E)
Time: 13:46:27
(UTC+00:00)

A-11 Canister half - All Passes

Search period start: 01 August 2021 00:00
Search period end: 11 August 2021 00:00
Orbit: 1513 x 1687 km, 47.2° (Epoch: 31 July)

Date Brightness Start Highest point End Pass type
(mag) Time Alt. Az. Time Alt. Az. Time Alt. Az.
01 Aug - 01:43:14 10° NW 01:53:22 83° NE 02:03:11 10° SE night (unlit)
01 Aug - 03:51:39 10° W 03:58:21 20° SW 04:04:57 10° S visible
01 Aug - 12:30:40 10° SSW 12:38:54 35° SE 12:47:15 10° ENE daylight
01 Aug - 14:34:42 10° WSW 14:43:35 48° NW 14:52:46 10° NNE daylight
01 Aug - 23:19:50 10° NNE 23:24:59 15° NE 23:30:03 10° ENE visible
02 Aug - 01:20:18 10° NW 01:30:26 77° NE 01:40:15 10° SE night (unlit)
02 Aug - 03:28:11 10° W 03:35:22 22° SW 03:42:26 10° S visible
02 Aug - 12:08:00 10° S 12:15:58 32° SE 12:24:03 10° ENE daylight
02 Aug - 14:11:40 10° SW 14:20:40 53° NW 14:29:56 10° NNE daylight
02 Aug - 22:57:36 10° NNE 23:01:56 13° NE 23:06:13 10° ENE visible
03 Aug - 00:57:23 10° NNW 01:07:29 71° NE 01:17:17 10° SE night (unlit)
03 Aug - 03:04:46 10° W 03:12:23 25° SW 03:19:53 10° S visible
03 Aug - 11:45:21 10° S 11:53:03 29° SE 12:00:49 10° ENE daylight
03 Aug - 13:48:41 10° SW 13:57:45 57° NW 14:07:06 10° NNE daylight
03 Aug - 22:35:38 10° NNE 22:38:53 12° NE 22:42:06 10° ENE visible
04 Aug - 00:34:30 10° NNW 00:44:32 66° NE 00:54:18 10° SE night (unlit)
04 Aug - 02:41:26 10° WNW 02:49:25 27° SW 02:57:17 10° S night (unlit)
04 Aug - 11:22:43 10° S 11:30:07 27° SE 11:37:33 10° ENE daylight
04 Aug - 13:25:41 10° SW 13:34:50 63° NW 13:44:15 10° NNE daylight
04 Aug - 15:40:01 10° NW 15:40:25 10° NW 15:40:49 10° NW daylight
04 Aug - 22:14:27 10° NE 22:15:49 10° NE 22:17:10 10° NE visible
05 Aug - 00:11:37 10° NNW 00:21:35 61° NE 00:31:18 10° SE visible
05 Aug - 02:18:07 10° WNW 02:26:28 30° SW 02:34:38 10° S night (unlit)
05 Aug - 11:00:08 10° S 11:07:10 24° SE 11:14:15 10° E daylight
05 Aug - 13:02:43 10° SW 13:11:55 68° NW 13:21:23 10° NNE daylight
05 Aug - 15:14:36 10° WNW 15:17:22 11° NW 15:20:12 10° NNW daylight
05 Aug - 23:48:45 10° NNW 23:58:38 56° NE 00:08:18 10° SE visible
06 Aug - 01:54:52 10° WNW 02:03:30 33° SW 02:11:59 10° S night (unlit)
06 Aug - 10:37:34 10° S 10:44:13 22° SE 10:50:54 10° E daylight
06 Aug - 12:39:47 10° SW 12:49:00 74° NW 12:58:30 10° NNE daylight
06 Aug - 14:50:30 10° WNW 14:54:21 13° NW 14:58:16 10° NNW daylight
06 Aug - 23:25:55 10° NNW 23:35:41 51° NE 23:45:15 10° ESE visible
07 Aug - 01:31:37 10° WNW 01:40:32 36° SW 01:49:17 10° SSE night (unlit)
07 Aug - 10:15:04 10° S 10:21:16 20° SE 10:27:29 10° E daylight
07 Aug - 12:16:51 10° SW 12:26:07 80° NW 12:35:36 10° NE daylight
07 Aug - 14:26:42 10° WNW 14:31:21 15° NW 14:36:05 10° NNW daylight
07 Aug - 23:03:05 10° NNW 23:12:43 47° NE 23:22:10 10° ESE visible
08 Aug - 01:08:25 10° WNW 01:17:35 39° SW 01:26:35 10° SSE night (unlit)
08 Aug - 09:52:37 10° S 09:58:18 18° SE 10:03:59 10° E daylight
08 Aug - 11:53:56 10° SW 12:03:13 87° NW 12:12:42 10° NE daylight
08 Aug - 14:03:04 10° W 14:08:20 16° NW 14:13:44 10° N daylight
08 Aug - 22:40:17 10° NNW 22:49:45 43° NE 22:59:05 10° ESE visible
09 Aug - 00:45:16 10° WNW 00:54:38 43° SW 01:03:50 10° SSE night (unlit)
09 Aug - 09:30:15 10° SSE 09:35:20 16° SE 09:40:25 10° E daylight
09 Aug - 11:31:04 10° SW 11:40:19 87° SE 11:49:46 10° NE daylight
09 Aug - 13:39:33 10° W 13:45:21 18° NW 13:51:18 10° N daylight
09 Aug - 22:17:31 10° NNW 22:26:47 40° NE 22:35:57 10° ESE visible
10 Aug - 00:22:08 10° WNW 00:31:40 47° SW 00:41:04 10° SSE night (unlit)
10 Aug - 09:08:00 10° SSE 09:12:21 14° SE 09:16:42 10° ESE daylight
10 Aug - 11:08:11 10° SW 11:17:26 80° SE 11:26:50 10° NE daylight
10 Aug - 13:16:07 10° W 13:22:23 20° NW 13:28:47 10° N daylight
10 Aug - 21:54:45 10° NNW 22:03:49 37° NE 22:12:47 10° ESE visible
